Location: Krasnoyarskiy Pitomnik
(51.1333°N, 71.6167°E)
Time: 13:16:11
(UTC+00:00)

Transit 2A - Pass Details

Date: 15 April 2024
Orbit: 594 x 958 km, 66.7° (Epoch: 27 May)

Event Time Altitude Azimuth Distance (km) Brightness Sun altitude
Rises 09:38:58 0° 322° (NW) 3,125 9.1 39.3°
Reaches altitude 10° 09:41:28 10° 333° (NNW) 2,261 8.4 39.0°
Maximum altitude 09:46:09 33° 37° (NE) 1,322 7.1 38.4°
Drops below altitude 10° 09:51:15 10° 101° (E) 2,477 8.4 37.8°
Sets 09:54:05 0° 110° (ESE) 3,468 9.1 37.4°
